Wetterdaten: Dienstag, 15.03.2016
Datum Zeit Auen-Temp. Temp gefhlt Luftfeuchte Luftdruck Regen Wind Richtung Richtung Sonnenschein Taupunkt Windben
15.03.2016 00:00 -3,4 C -3,8 C 82 % 1021,2 hPa 0,0 mm 0,0 km/h (0 Bft) NW 315 0 min -6,0 C 0,0 km/h (0 Bft)
15.03.2016 00:05 -3,2 C -3,7 C 83 % 1021,2 hPa 0,0 mm 0,0 km/h (0 Bft) SO 135 0 min -5,7 C 0,0 km/h (0 Bft)
15.03.2016 00:10 -2,7 C -3,3 C 84 % 1021,2 hPa 0,0 mm 0,9 km/h (0 Bft) S 180 0 min -5,0 C 3,9 km/h (1 Bft)
15.03.2016 00:15 -2,6 C -3,1 C 85 % 1021,2 hPa 0,0 mm 1,2 km/h (1 Bft) SO 135 0 min -4,8 C 3,3 km/h (1 Bft)
15.03.2016 00:20 -2,5 C -3,0 C 85 % 1021,2 hPa 0,0 mm 2,4 km/h (1 Bft) S-SO 157 0 min -4,7 C 3,3 km/h (1 Bft)
15.03.2016 00:25 -3,0 C -3,4 C 85 % 1021,2 hPa 0,0 mm 1,5 km/h (1 Bft) NW 315 0 min -5,2 C 0,0 km/h (0 Bft)
15.03.2016 00:30 -3,4 C -3,8 C 84 % 1021,2 hPa 0,0 mm 0,6 km/h (0 Bft) S 180 0 min -5,7 C 0,0 km/h (0 Bft)
15.03.2016 00:35 -3,1 C -3,7 C 84 % 1021,2 hPa 0,0 mm 0,0 km/h (0 Bft) SO 135 0 min -5,4 C 0,0 km/h (0 Bft)
15.03.2016 00:40 -2,9 C -3,5 C 84 % 1021,2 hPa 0,0 mm 0,3 km/h (0 Bft) S 180 0 min -5,2 C 3,3 km/h (1 Bft)
15.03.2016 00:45 -3,2 C -3,7 C 84 % 1021,2 hPa 0,0 mm 0,3 km/h (0 Bft) O-NO 67 0 min -5,5 C 0,0 km/h (0 Bft)
15.03.2016 00:50 -3,3 C -3,8 C 84 % 1020,9 hPa 0,0 mm 0,3 km/h (0 Bft) O-SO 112 0 min -5,6 C 0,0 km/h (0 Bft)
15.03.2016 00:55 -3,8 C -4,2 C 84 % 1020,9 hPa 0,0 mm 0,0 km/h (0 Bft) NW 315 0 min -6,1 C 0,0 km/h (0 Bft)
15.03.2016 01:00 -3,9 C -4,4 C 83 % 1020,9 hPa 0,0 mm 0,0 km/h (0 Bft) NW 315 0 min -6,4 C 0,0 km/h (0 Bft)
15.03.2016 01:05 -3,9 C -4,4 C 83 % 1020,9 hPa 0,0 mm 0,0 km/h (0 Bft) S-SW 202 0 min -6,4 C 0,0 km/h (0 Bft)
15.03.2016 01:10 -3,9 C -4,4 C 83 % 1021,0 hPa 0,0 mm 0,0 km/h (0 Bft) N-NW 337 0 min -6,4 C 0,0 km/h (0 Bft)
15.03.2016 01:15 -3,8 C -4,4 C 83 % 1021,0 hPa 0,0 mm 0,0 km/h (0 Bft) O-NO 67 0 min -6,3 C 0,0 km/h (0 Bft)
15.03.2016 01:20 -4,2 C -4,6 C 83 % 1021,0 hPa 0,0 mm 0,0 km/h (0 Bft) NO 45 0 min -6,6 C 0,0 km/h (0 Bft)
15.03.2016 01:25 -4,2 C -4,7 C 83 % 1021,0 hPa 0,0 mm 0,0 km/h (0 Bft) NO 45 0 min -6,6 C 0,0 km/h (0 Bft)
15.03.2016 01:30 -4,3 C -4,7 C 83 % 1021,1 hPa 0,0 mm 0,3 km/h (0 Bft) W 270 0 min -6,7 C 0,0 km/h (0 Bft)
15.03.2016 01:35 -4,2 C -4,7 C 83 % 1021,1 hPa 0,0 mm 0,3 km/h (0 Bft) N-NO 22 0 min -6,6 C 0,0 km/h (0 Bft)
15.03.2016 01:40 -4,3 C -4,8 C 83 % 1021,1 hPa 0,0 mm 0,0 km/h (0 Bft) W 270 0 min -6,7 C 0,0 km/h (0 Bft)
15.03.2016 01:45 -3,9 C -4,5 C 84 % 1021,1 hPa 0,0 mm 0,0 km/h (0 Bft) S 180 0 min -6,2 C 0,0 km/h (0 Bft)
15.03.2016 01:50 -3,6 C -4,3 C 85 % 1021,0 hPa 0,0 mm 0,0 km/h (0 Bft) N-NO 22 0 min -5,7 C 0,0 km/h (0 Bft)
15.03.2016 01:52 -3,6 C -4,3 C 85 % 1021,0 hPa 0,0 mm 0,0 km/h (0 Bft) N-NO 22 0 min -5,7 C 0,0 km/h (0 Bft)
15.03.2016 01:55 -3,7 C -4,3 C 85 % 1021,0 hPa 0,0 mm 0,0 km/h (0 Bft) N-NO 22 0 min -5,8 C 0,0 km/h (0 Bft)
15.03.2016 02:00 -3,5 C -4,2 C 86 % 1021,0 hPa 0,0 mm 0,0 km/h (0 Bft) S-SW 202 0 min -5,5 C 0,0 km/h (0 Bft)
15.03.2016 02:05 -3,5 C -4,1 C 86 % 1021,0 hPa 0,0 mm 0,0 km/h (0 Bft) S-SW 202 0 min -5,5 C 0,0 km/h (0 Bft)
15.03.2016 02:10 -3,8 C -4,3 C 86 % 1020,8 hPa 0,0 mm 0,0 km/h (0 Bft) N-NW 337 0 min -5,8 C 0,0 km/h (0 Bft)
15.03.2016 02:15 -4,2 C -4,7 C 86 % 1020,8 hPa 0,0 mm 0,0 km/h (0 Bft) S-SO 157 0 min -6,2 C 0,0 km/h (0 Bft)
15.03.2016 02:20 -4,2 C -4,7 C 86 % 1020,8 hPa 0,0 mm 0,0 km/h (0 Bft) W 270 0 min -6,2 C 0,0 km/h (0 Bft)
15.03.2016 02:25 -4,4 C -4,9 C 86 % 1020,8 hPa 0,0 mm 0,0 km/h (0 Bft) N-NO 22 0 min -6,4 C 0,0 km/h (0 Bft)
15.03.2016 02:30 -4,4 C -4,9 C 86 % 1020,8 hPa 0,0 mm 0,0 km/h (0 Bft) O 90 0 min -6,4 C 0,0 km/h (0 Bft)
15.03.2016 02:35 -4,6 C -5,1 C 86 % 1020,8 hPa 0,0 mm 0,0 km/h (0 Bft) W 270 0 min -6,6 C 0,0 km/h (0 Bft)
15.03.2016 02:40 -4,3 C -4,9 C 86 % 1020,8 hPa 0,0 mm 0,0 km/h (0 Bft) W 270 0 min -6,3 C 0,0 km/h (0 Bft)
15.03.2016 02:45 -4,0 C -4,7 C 86 % 1020,8 hPa 0,0 mm 0,0 km/h (0 Bft) O 90 0 min -6,0 C 0,0 km/h (0 Bft)
15.03.2016 02:50 -3,9 C -4,6 C 86 % 1020,5 hPa 0,0 mm 0,0 km/h (0 Bft) SW 225 0 min -5,9 C 0,0 km/h (0 Bft)
15.03.2016 02:55 -4,2 C -4,8 C 86 % 1020,5 hPa 0,0 mm 0,0 km/h (0 Bft) N-NW 337 0 min -6,2 C 0,0 km/h (0 Bft)
15.03.2016 03:00 -4,5 C -5,0 C 86 % 1020,5 hPa 0,0 mm 0,0 km/h (0 Bft) NW 315 0 min -6,5 C 0,0 km/h (0 Bft)
15.03.2016 03:05 -4,7 C -5,2 C 86 % 1020,5 hPa 0,0 mm 0,0 km/h (0 Bft) W 270 0 min -6,7 C 0,0 km/h (0 Bft)
15.03.2016 03:10 -4,9 C -5,4 C 86 % 1020,1 hPa 0,0 mm 0,0 km/h (0 Bft) NW 315 0 min -6,9 C 0,0 km/h (0 Bft)
15.03.2016 03:15 -4,4 C -5,1 C 86 % 1020,1 hPa 0,0 mm 0,0 km/h (0 Bft) W-NW 292 0 min -6,4 C 0,0 km/h (0 Bft)
15.03.2016 03:20 -4,2 C -4,9 C 86 % 1020,1 hPa 0,0 mm 0,0 km/h (0 Bft) W 270 0 min -6,2 C 0,0 km/h (0 Bft)
15.03.2016 03:25 -4,5 C -5,0 C 86 % 1020,1 hPa 0,0 mm 0,0 km/h (0 Bft) O-NO 67 0 min -6,5 C 0,0 km/h (0 Bft)
15.03.2016 03:30 -4,6 C -5,0 C 86 % 1020,5 hPa 0,0 mm 0,0 km/h (0 Bft) S-SO 157 0 min -6,6 C 0,0 km/h (0 Bft)
15.03.2016 03:35 -4,6 C -5,0 C 86 % 1020,5 hPa 0,0 mm 0,0 km/h (0 Bft) W 270 0 min -6,6 C 0,0 km/h (0 Bft)
15.03.2016 03:40 -4,4 C -4,9 C 86 % 1020,5 hPa 0,0 mm 0,0 km/h (0 Bft) S 180 0 min -6,4 C 0,0 km/h (0 Bft)
15.03.2016 03:45 -3,9 C -4,4 C 87 % 1020,5 hPa 0,0 mm 0,0 km/h (0 Bft) NW 315 0 min -5,7 C 0,0 km/h (0 Bft)
15.03.2016 03:50 -4,2 C -4,6 C 87 % 1020,2 hPa 0,0 mm 0,0 km/h (0 Bft) N 360 0 min -6,0 C 0,0 km/h (0 Bft)
15.03.2016 03:55 -4,2 C -4,7 C 87 % 1020,2 hPa 0,0 mm 0,0 km/h (0 Bft) S-SO 157 0 min -6,0 C 0,0 km/h (0 Bft)
15.03.2016 04:00 -3,8 C -4,4 C 87 % 1020,2 hPa 0,0 mm 0,0 km/h (0 Bft) S 180 0 min -5,6 C 0,0 km/h (0 Bft)
15.03.2016 04:05 -4,4 C -4,8 C 87 % 1020,2 hPa 0,0 mm 0,0 km/h (0 Bft) W 270 0 min -6,2 C 0,0 km/h (0 Bft)
15.03.2016 04:10 -4,5 C -4,9 C 87 % 1020,3 hPa 0,0 mm 0,0 km/h (0 Bft) SO 135 0 min -6,3 C 0,0 km/h (0 Bft)
15.03.2016 04:15 -4,7 C -5,1 C 87 % 1020,3 hPa 0,0 mm 0,0 km/h (0 Bft) SO 135 0 min -6,5 C 0,0 km/h (0 Bft)
15.03.2016 04:20 -4,6 C -5,0 C 87 % 1020,3 hPa 0,0 mm 0,0 km/h (0 Bft) SW 225 0 min -6,4 C 3,3 km/h (1 Bft)
15.03.2016 04:25 -3,6 C -4,0 C 83 % 1020,3 hPa 0,0 mm 3,3 km/h (1 Bft) SW 225 0 min -6,1 C 8,3 km/h (2 Bft)
15.03.2016 04:30 -3,5 C -4,1 C 88 % 1020,4 hPa 0,0 mm 4,5 km/h (1 Bft) S 180 0 min -5,2 C 3,0 km/h (1 Bft)
15.03.2016 04:35 -3,7 C -4,1 C 88 % 1020,4 hPa 0,0 mm 2,1 km/h (1 Bft) W 270 0 min -5,4 C 0,0 km/h (0 Bft)
15.03.2016 04:40 -3,7 C -4,1 C 88 % 1020,4 hPa 0,0 mm 0,6 km/h (0 Bft) S 180 0 min -5,4 C 0,0 km/h (0 Bft)
15.03.2016 04:45 -4,1 C -4,4 C 88 % 1020,4 hPa 0,0 mm 0,3 km/h (0 Bft) W-NW 292 0 min -5,8 C 0,0 km/h (0 Bft)
15.03.2016 04:50 -4,3 C -4,6 C 87 % 1020,4 hPa 0,0 mm 0,3 km/h (0 Bft) O 90 0 min -6,1 C 0,0 km/h (0 Bft)
15.03.2016 04:53 -4,3 C -4,6 C 87 % 1020,4 hPa 0,0 mm 0,3 km/h (0 Bft) O 90 0 min -6,1 C 0,0 km/h (0 Bft)
15.03.2016 04:55 -4,3 C -4,6 C 87 % 1020,4 hPa 0,0 mm 0,0 km/h (0 Bft) W 270 0 min -6,1 C 0,0 km/h (0 Bft)
15.03.2016 05:00 -4,2 C -4,6 C 87 % 1020,4 hPa 0,0 mm 0,6 km/h (0 Bft) W 270 0 min -6,0 C 0,0 km/h (0 Bft)
15.03.2016 05:05 -3,8 C -4,2 C 87 % 1020,4 hPa 0,0 mm 2,7 km/h (1 Bft) SW 225 0 min -5,6 C 9,2 km/h (2 Bft)
15.03.2016 05:10 -3,6 C -4,0 C 87 % 1020,2 hPa 0,0 mm 2,7 km/h (1 Bft) SW 225 0 min -5,4 C 0,0 km/h (0 Bft)
15.03.2016 05:15 -3,7 C -4,1 C 87 % 1020,2 hPa 0,0 mm 0,9 km/h (0 Bft) W 270 0 min -5,5 C 0,0 km/h (0 Bft)
15.03.2016 05:20 -3,7 C -4,1 C 87 % 1020,2 hPa 0,0 mm 0,3 km/h (0 Bft) S 180 0 min -5,5 C 0,0 km/h (0 Bft)
15.03.2016 05:25 -3,4 C -3,7 C 83 % 1020,2 hPa 0,0 mm 0,9 km/h (0 Bft) S 180 0 min -5,9 C 3,9 km/h (1 Bft)
15.03.2016 05:30 -3,3 C -3,6 C 88 % 1020,2 hPa 0,0 mm 0,9 km/h (0 Bft) W-SW 247 0 min -5,0 C 0,0 km/h (0 Bft)
15.03.2016 05:35 -3,1 C -3,5 C 88 % 1020,2 hPa 0,0 mm 2,4 km/h (1 Bft) S-SW 202 0 min -4,8 C 14,3 km/h (3 Bft)
15.03.2016 05:40 -3,0 C -3,6 C 88 % 1020,2 hPa 0,0 mm 5,7 km/h (1 Bft) SW 225 0 min -4,7 C 9,8 km/h (2 Bft)
15.03.2016 05:45 -2,7 C -3,7 C 88 % 1020,2 hPa 0,0 mm 8,3 km/h (2 Bft) W-SW 247 0 min -4,4 C 11,9 km/h (2 Bft)
15.03.2016 05:50 -2,6 C -3,5 C 89 % 1020,1 hPa 0,0 mm 8,0 km/h (2 Bft) S 180 0 min -4,2 C 12,8 km/h (3 Bft)
15.03.2016 05:55 -2,5 C -3,3 C 88 % 1020,1 hPa 0,0 mm 7,7 km/h (2 Bft) W-NW 292 0 min -4,2 C 6,0 km/h (2 Bft)
15.03.2016 06:00 -2,6 C -3,1 C 88 % 1020,1 hPa 0,0 mm 5,7 km/h (1 Bft) SO 135 0 min -4,3 C 0,0 km/h (0 Bft)
15.03.2016 06:05 -2,7 C -3,0 C 88 % 1020,1 hPa 0,0 mm 1,8 km/h (1 Bft) W-NW 292 0 min -4,4 C 8,9 km/h (2 Bft)
15.03.2016 06:10 -2,8 C -3,0 C 88 % 1020,2 hPa 0,0 mm 1,5 km/h (1 Bft) W-SW 247 0 min -4,5 C 0,0 km/h (0 Bft)
15.03.2016 06:15 -2,6 C -3,0 C 88 % 1020,2 hPa 0,0 mm 4,5 km/h (1 Bft) SW 225 0 min -4,3 C 8,9 km/h (2 Bft)
15.03.2016 06:20 -2,5 C -3,2 C 88 % 1020,2 hPa 0,0 mm 6,3 km/h (2 Bft) S-SW 202 0 min -4,2 C 10,1 km/h (2 Bft)
15.03.2016 06:25 -2,5 C -3,1 C 88 % 1020,2 hPa 0,0 mm 6,0 km/h (2 Bft) S 180 0 min -4,2 C 6,3 km/h (2 Bft)
15.03.2016 06:30 -2,5 C -3,1 C 88 % 1020,1 hPa 0,0 mm 5,7 km/h (1 Bft) W-SW 247 0 min -4,2 C 8,0 km/h (2 Bft)
15.03.2016 06:35 -2,5 C -3,2 C 88 % 1020,1 hPa 0,0 mm 6,3 km/h (2 Bft) S 180 0 min -4,2 C 15,5 km/h (3 Bft)
15.03.2016 06:40 -2,4 C -2,8 C 88 % 1020,1 hPa 0,0 mm 4,5 km/h (1 Bft) NO 45 0 min -4,1 C 0,0 km/h (0 Bft)
15.03.2016 06:45 -2,6 C -2,9 C 87 % 1020,1 hPa 0,0 mm 0,9 km/h (0 Bft) W-SW 247 0 min -4,5 C 0,0 km/h (0 Bft)
15.03.2016 06:50 -2,6 C -2,9 C 87 % 1020,1 hPa 0,0 mm 0,0 km/h (0 Bft) W-SW 247 0 min -4,5 C 0,0 km/h (0 Bft)
15.03.2016 06:55 -2,6 C -2,9 C 87 % 1020,1 hPa 0,0 mm 0,0 km/h (0 Bft) SW 225 0 min -4,5 C 0,0 km/h (0 Bft)
15.03.2016 07:00 -2,6 C -2,9 C 87 % 1020,1 hPa 0,0 mm 0,0 km/h (0 Bft) W-SW 247 0 min -4,5 C 0,0 km/h (0 Bft)
15.03.2016 07:05 -2,6 C -2,9 C 87 % 1020,1 hPa 0,0 mm 0,0 km/h (0 Bft) NW 315 0 min -4,5 C 0,0 km/h (0 Bft)
15.03.2016 07:10 -2,6 C -2,8 C 82 % 1020,2 hPa 0,0 mm 0,0 km/h (0 Bft) W-NW 292 0 min -5,2 C 0,0 km/h (0 Bft)
15.03.2016 07:15 -2,6 C -2,8 C 82 % 1020,2 hPa 0,0 mm 0,0 km/h (0 Bft) W-SW 247 0 min -5,2 C 0,0 km/h (0 Bft)
15.03.2016 07:20 -2,6 C -2,7 C 82 % 1020,2 hPa 0,0 mm 0,0 km/h (0 Bft) SW 225 0 min -5,2 C 0,0 km/h (0 Bft)
15.03.2016 07:25 -2,3 C -2,4 C 83 % 1020,2 hPa 0,0 mm 2,7 km/h (1 Bft) S-SW 202 0 min -4,8 C 6,3 km/h (2 Bft)
15.03.2016 07:30 -2,2 C -2,4 C 83 % 1020,1 hPa 0,0 mm 4,5 km/h (1 Bft) SO 135 0 min -4,7 C 0,0 km/h (0 Bft)
15.03.2016 07:35 -2,2 C -2,2 C 83 % 1020,1 hPa 0,0 mm 2,1 km/h (1 Bft) W-NW 292 0 min -4,7 C 0,0 km/h (0 Bft)
15.03.2016 07:40 -2,1 C -2,1 C 83 % 1020,1 hPa 0,0 mm 0,0 km/h (0 Bft) N-NW 337 0 min -4,6 C 0,0 km/h (0 Bft)
15.03.2016 07:45 -2,0 C -1,9 C 83 % 1020,1 hPa 0,0 mm 0,0 km/h (0 Bft) SO 135 0 min -4,5 C 0,0 km/h (0 Bft)
15.03.2016 07:50 -1,8 C -1,7 C 83 % 1019,9 hPa 0,0 mm 0,0 km/h (0 Bft) N-NO 22 0 min -4,3 C 0,0 km/h (0 Bft)
15.03.2016 07:54 -1,7 C -1,3 C 83 % 1019,9 hPa 0,0 mm 0,0 km/h (0 Bft) W 270 0 min -4,2 C 0,0 km/h (0 Bft)
15.03.2016 07:55 -1,7 C -1,3 C 83 % 1019,9 hPa 0,0 mm 0,0 km/h (0 Bft) W 270 0 min -4,2 C 0,0 km/h (0 Bft)
15.03.2016 08:00 -1,7 C -1,2 C 83 % 1019,9 hPa 0,0 mm 0,0 km/h (0 Bft) W-NW 292 0 min -4,2 C 0,0 km/h (0 Bft)
15.03.2016 08:05 -1,6 C -1,0 C 83 % 1019,9 hPa 0,0 mm 0,0 km/h (0 Bft) NW 315 0 min -4,1 C 0,0 km/h (0 Bft)
15.03.2016 08:10 -1,5 C -1,0 C 83 % 1019,7 hPa 0,0 mm 0,0 km/h (0 Bft) W 270 0 min -4,0 C 0,0 km/h (0 Bft)
15.03.2016 08:15 -1,2 C -0,7 C 83 % 1019,7 hPa 0,0 mm 0,3 km/h (0 Bft) W-SW 247 0 min -3,7 C 5,1 km/h (1 Bft)
15.03.2016 08:20 -1,1 C -0,5 C 83 % 1019,7 hPa 0,0 mm 0,9 km/h (0 Bft) S 180 0 min -3,6 C 4,5 km/h (1 Bft)
15.03.2016 08:25 -0,9 C -0,4 C 83 % 1019,7 hPa 0,0 mm 2,7 km/h (1 Bft) W-NW 292 0 min -3,4 C 0,0 km/h (0 Bft)
15.03.2016 08:30 -0,9 C -0,3 C 83 % 1019,5 hPa 0,0 mm 3,3 km/h (1 Bft) W-SW 247 0 min -3,4 C 7,2 km/h (2 Bft)
15.03.2016 08:35 -0,5 C 0,0 C 83 % 1019,5 hPa 0,0 mm 2,7 km/h (1 Bft) W-SW 247 0 min -3,0 C 3,3 km/h (1 Bft)
15.03.2016 08:40 -0,3 C 0,1 C 83 % 1019,5 hPa 0,0 mm 2,4 km/h (1 Bft) NW 315 0 min -2,8 C 0,0 km/h (0 Bft)
15.03.2016 08:45 -0,3 C 0,1 C 82 % 1019,5 hPa 0,0 mm 2,1 km/h (1 Bft) N-NW 337 0 min -3,0 C 0,0 km/h (0 Bft)
15.03.2016 08:50 -0,2 C 0,2 C 82 % 1019,5 hPa 0,0 mm 1,5 km/h (1 Bft) SO 135 0 min -2,9 C 0,0 km/h (0 Bft)
15.03.2016 08:55 -0,1 C 0,7 C 82 % 1019,5 hPa 0,0 mm 0,3 km/h (0 Bft) W-SW 247 0 min -2,8 C 0,0 km/h (0 Bft)
15.03.2016 09:00 0,0 C 1,0 C 82 % 1019,5 hPa 0,0 mm 0,0 km/h (0 Bft) W-SW 247 0 min -2,7 C 0,0 km/h (0 Bft)
15.03.2016 09:05 0,3 C 1,3 C 82 % 1019,5 hPa 0,0 mm 0,0 km/h (0 Bft) W-NW 292 0 min -2,4 C 0,0 km/h (0 Bft)
15.03.2016 09:10 0,4 C 1,5 C 82 % 1019,4 hPa 0,0 mm 0,0 km/h (0 Bft) S 180 0 min -2,3 C 0,0 km/h (0 Bft)
15.03.2016 09:15 0,6 C 2,0 C 82 % 1019,4 hPa 0,0 mm 0,0 km/h (0 Bft) NW 315 0 min -2,1 C 0,0 km/h (0 Bft)
15.03.2016 09:20 0,8 C 2,3 C 81 % 1019,4 hPa 0,0 mm 0,0 km/h (0 Bft) O 90 0 min -2,1 C 0,0 km/h (0 Bft)
15.03.2016 09:25 1,0 C 2,7 C 81 % 1019,4 hPa 0,0 mm 0,0 km/h (0 Bft) O 90 0 min -1,9 C 0,0 km/h (0 Bft)
15.03.2016 09:30 1,1 C 2,9 C 81 % 1019,6 hPa 0,0 mm 0,0 km/h (0 Bft) NW 315 0 min -1,8 C 0,0 km/h (0 Bft)
15.03.2016 09:35 1,1 C 2,7 C 80 % 1019,6 hPa 0,0 mm 2,1 km/h (1 Bft) S 180 0 min -2,0 C 6,3 km/h (2 Bft)
15.03.2016 09:40 1,3 C 2,6 C 80 % 1019,6 hPa 0,0 mm 4,5 km/h (1 Bft) NW 315 0 min -1,8 C 6,6 km/h (2 Bft)
15.03.2016 09:45 1,3 C 2,2 C 79 % 1019,6 hPa 0,0 mm 5,7 km/h (1 Bft) NW 315 0 min -1,9 C 9,2 km/h (2 Bft)
15.03.2016 09:50 1,3 C 2,2 C 79 % 1019,6 hPa 0,0 mm 5,7 km/h (1 Bft) N 360 0 min -1,9 C 3,0 km/h (1 Bft)
15.03.2016 09:55 1,5 C 2,3 C 79 % 1019,6 hPa 0,0 mm 5,1 km/h (1 Bft) NW 315 0 min -1,7 C 10,1 km/h (2 Bft)
15.03.2016 09:56 1,5 C 2,3 C 79 % 1019,6 hPa 0,0 mm 5,1 km/h (1 Bft) NW 315 0 min -1,7 C 10,1 km/h (2 Bft)
15.03.2016 09:57 1,5 C 2,3 C 79 % 1019,6 hPa 0,0 mm 5,1 km/h (1 Bft) NW 315 0 min -1,7 C 10,1 km/h (2 Bft)
15.03.2016 09:58 1,5 C 2,3 C 79 % 1019,6 hPa 0,0 mm 5,1 km/h (1 Bft) NW 315 0 min -1,7 C 10,1 km/h (2 Bft)
15.03.2016 09:59 1,5 C 2,2 C 79 % 1019,6 hPa 0,0 mm 5,7 km/h (1 Bft) W 270 0 min -1,7 C 10,4 km/h (2 Bft)
15.03.2016 10:01 1,5 C 2,2 C 79 % 1019,6 hPa 0,0 mm 5,7 km/h (1 Bft) W 270 0 min -1,7 C 10,4 km/h (2 Bft)
15.03.2016 10:12 1,6 C 2,1 C 78 % 1019,7 hPa 0,0 mm 6,9 km/h (2 Bft) N-NW 337 0 min -1,8 C 13,1 km/h (3 Bft)
15.03.2016 10:13 1,6 C 2,1 C 78 % 1019,7 hPa 0,0 mm 6,9 km/h (2 Bft) N-NW 337 0 min -1,8 C 13,1 km/h (3 Bft)
15.03.2016 10:14 1,6 C 2,2 C 78 % 1019,7 hPa 0,0 mm 6,3 km/h (2 Bft) NW 315 0 min -1,8 C 5,1 km/h (1 Bft)
15.03.2016 10:15 1,6 C 2,2 C 78 % 1019,7 hPa 0,0 mm 6,3 km/h (2 Bft) NW 315 0 min -1,8 C 16,4 km/h (3 Bft)
15.03.2016 10:16 1,6 C 2,2 C 78 % 1019,7 hPa 0,0 mm 6,3 km/h (2 Bft) NW 315 0 min -1,8 C 5,1 km/h (1 Bft)
15.03.2016 10:18 1,6 C 2,2 C 78 % 1019,7 hPa 0,0 mm 6,3 km/h (2 Bft) NW 315 0 min -1,8 C 5,1 km/h (1 Bft)
15.03.2016 10:29 1,6 C 2,8 C 78 % 1019,8 hPa 0,0 mm 4,8 km/h (1 Bft) N-NW 337 0 min -1,8 C 10,7 km/h (2 Bft)
15.03.2016 10:30 1,6 C 2,8 C 78 % 1019,8 hPa 0,0 mm 4,8 km/h (1 Bft) N-NW 337 0 min -1,8 C 10,7 km/h (2 Bft)
15.03.2016 10:31 1,6 C 2,8 C 78 % 1019,8 hPa 0,0 mm 4,8 km/h (1 Bft) N-NW 337 0 min -1,8 C 10,7 km/h (2 Bft)
15.03.2016 10:32 1,6 C 2,8 C 78 % 1019,8 hPa 0,0 mm 4,8 km/h (1 Bft) N-NW 337 0 min -1,8 C 10,7 km/h (2 Bft)
15.03.2016 10:33 1,6 C 2,8 C 78 % 1019,8 hPa 0,0 mm 4,8 km/h (1 Bft) N-NW 337 0 min -1,8 C 10,7 km/h (2 Bft)
15.03.2016 10:34 1,7 C 2,8 C 78 % 1019,8 hPa 0,0 mm 6,6 km/h (2 Bft) NW 315 0 min -1,7 C 7,7 km/h (2 Bft)
15.03.2016 10:39 1,7 C 2,8 C 78 % 1019,8 hPa 0,0 mm 6,9 km/h (2 Bft) N-NO 22 0 min -1,7 C 14,0 km/h (3 Bft)
15.03.2016 10:44 1,8 C 2,6 C 77 % 1019,8 hPa 0,0 mm 8,0 km/h (2 Bft) N 360 0 min -1,8 C 5,1 km/h (1 Bft)
15.03.2016 10:49 1,8 C 2,5 C 77 % 1019,7 hPa 0,0 mm 8,0 km/h (2 Bft) N-NW 337 0 min -1,8 C 7,5 km/h (2 Bft)
15.03.2016 10:54 1,5 C 1,6 C 77 % 1019,7 hPa 0,0 mm 7,7 km/h (2 Bft) N 360 0 min -2,1 C 8,9 km/h (2 Bft)
15.03.2016 10:55 1,5 C 1,6 C 77 % 1019,7 hPa 0,0 mm 7,7 km/h (2 Bft) N 360 0 min -2,1 C 8,9 km/h (2 Bft)
15.03.2016 11:00 1,0 C 1,1 C 77 % 1019,7 hPa 0,0 mm 8,6 km/h (2 Bft) NW 315 0 min -2,6 C 8,6 km/h (2 Bft)
15.03.2016 11:05 0,7 C 0,9 C 77 % 1019,7 hPa 0,0 mm 7,5 km/h (2 Bft) NW 315 0 min -2,9 C 7,2 km/h (2 Bft)
15.03.2016 11:10 0,6 C 1,0 C 77 % 1019,6 hPa 0,0 mm 6,0 km/h (2 Bft) N-NW 337 0 min -3,0 C 0,0 km/h (0 Bft)
15.03.2016 11:15 0,6 C 1,3 C 78 % 1019,6 hPa 0,0 mm 3,6 km/h (1 Bft) W-NW 292 0 min -2,8 C 4,2 km/h (1 Bft)
15.03.2016 11:20 0,5 C 1,5 C 78 % 1019,6 hPa 0,0 mm 0,9 km/h (0 Bft) NW 315 0 min -2,9 C 0,0 km/h (0 Bft)
15.03.2016 11:25 0,4 C 1,6 C 78 % 1019,6 hPa 0,0 mm 2,4 km/h (1 Bft) N-NW 337 0 min -3,0 C 4,5 km/h (1 Bft)
15.03.2016 11:30 0,3 C 1,4 C 78 % 1019,1 hPa 0,0 mm 3,6 km/h (1 Bft) N-NW 337 0 min -3,1 C 6,9 km/h (2 Bft)
15.03.2016 11:35 0,2 C 1,1 C 79 % 1019,1 hPa 0,0 mm 4,2 km/h (1 Bft) N-NW 337 0 min -3,0 C 5,7 km/h (1 Bft)
15.03.2016 11:40 0,2 C 1,0 C 79 % 1019,1 hPa 0,0 mm 4,2 km/h (1 Bft) N-NW 337 0 min -3,0 C 5,4 km/h (1 Bft)
15.03.2016 11:45 0,2 C 0,7 C 79 % 1019,1 hPa 0,0 mm 4,2 km/h (1 Bft) N-NW 337 0 min -3,0 C 4,5 km/h (1 Bft)
15.03.2016 11:50 0,0 C 0,6 C 79 % 1019,0 hPa 0,0 mm 4,2 km/h (1 Bft) NW 315 0 min -3,2 C 7,7 km/h (2 Bft)
15.03.2016 11:55 0,0 C 0,5 C 79 % 1019,0 hPa 0,0 mm 3,6 km/h (1 Bft) N-NO 22 0 min -3,2 C 5,7 km/h (1 Bft)
15.03.2016 12:00 -0,1 C 0,5 C 79 % 1019,0 hPa 0,0 mm 3,0 km/h (1 Bft) O-NO 67 0 min -3,3 C 3,3 km/h (1 Bft)
15.03.2016 12:05 -0,1 C 0,6 C 79 % 1019,0 hPa 0,0 mm 1,5 km/h (1 Bft) O-NO 67 0 min -3,3 C 3,0 km/h (1 Bft)
15.03.2016 12:10 -0,2 C 0,5 C 80 % 1018,8 hPa 0,0 mm 0,9 km/h (0 Bft) NO 45 0 min -3,2 C 3,3 km/h (1 Bft)
15.03.2016 12:15 -0,2 C 0,8 C 80 % 1018,8 hPa 0,0 mm 0,6 km/h (0 Bft) O 90 0 min -3,2 C 0,0 km/h (0 Bft)
15.03.2016 12:20 -0,1 C 0,9 C 80 % 1018,8 hPa 0,0 mm 0,3 km/h (0 Bft) NW 315 0 min -3,1 C 0,0 km/h (0 Bft)
15.03.2016 12:25 0,0 C 0,9 C 81 % 1018,8 hPa 0,0 mm 0,6 km/h (0 Bft) N-NO 22 0 min -2,9 C 0,0 km/h (0 Bft)
15.03.2016 12:30 0,0 C 1,0 C 81 % 1018,7 hPa 0,0 mm 0,9 km/h (0 Bft) N-NO 22 0 min -2,9 C 6,0 km/h (2 Bft)
15.03.2016 12:35 0,0 C 1,2 C 81 % 1018,7 hPa 0,0 mm 1,8 km/h (1 Bft) O-NO 67 0 min -2,9 C 0,0 km/h (0 Bft)
15.03.2016 12:40 0,0 C 1,0 C 81 % 1018,7 hPa 0,0 mm 1,5 km/h (1 Bft) NO 45 0 min -2,9 C 0,0 km/h (0 Bft)
15.03.2016 12:45 0,2 C 1,4 C 81 % 1018,7 hPa 0,0 mm 0,3 km/h (0 Bft) NO 45 0 min -2,7 C 0,0 km/h (0 Bft)
15.03.2016 12:50 0,2 C 1,5 C 82 % 1018,6 hPa 0,0 mm 0,3 km/h (0 Bft) N-NO 22 0 min -2,5 C 0,0 km/h (0 Bft)
15.03.2016 12:55 0,3 C 1,6 C 82 % 1018,6 hPa 0,0 mm 0,3 km/h (0 Bft) NW 315 0 min -2,4 C 4,5 km/h (1 Bft)
15.03.2016 13:00 0,5 C 1,8 C 82 % 1018,6 hPa 0,0 mm 0,6 km/h (0 Bft) NO 45 0 min -2,2 C 0,0 km/h (0 Bft)
15.03.2016 13:05 0,6 C 2,0 C 82 % 1018,6 hPa 0,0 mm 0,6 km/h (0 Bft) W 270 0 min -2,1 C 0,0 km/h (0 Bft)
15.03.2016 13:10 0,6 C 2,1 C 82 % 1018,6 hPa 0,0 mm 0,0 km/h (0 Bft) N 360 0 min -2,1 C 0,0 km/h (0 Bft)
15.03.2016 13:15 0,7 C 2,2 C 82 % 1018,6 hPa 0,0 mm 0,0 km/h (0 Bft) NW 315 0 min -2,0 C 0,0 km/h (0 Bft)
15.03.2016 13:20 0,7 C 2,3 C 82 % 1018,6 hPa 0,0 mm 0,0 km/h (0 Bft) N-NW 337 0 min -2,0 C 0,0 km/h (0 Bft)
15.03.2016 13:25 0,6 C 1,9 C 82 % 1018,6 hPa 0,0 mm 0,0 km/h (0 Bft) NW 315 0 min -2,1 C 0,0 km/h (0 Bft)
15.03.2016 13:30 0,6 C 1,7 C 82 % 1018,4 hPa 0,0 mm 0,0 km/h (0 Bft) W 270 0 min -2,1 C 0,0 km/h (0 Bft)
15.03.2016 13:35 0,4 C 1,7 C 82 % 1018,4 hPa 0,0 mm 0,0 km/h (0 Bft) NW 315 0 min -2,3 C 0,0 km/h (0 Bft)
15.03.2016 13:40 0,4 C 1,6 C 82 % 1018,4 hPa 0,0 mm 0,0 km/h (0 Bft) W-NW 292 0 min -2,3 C 0,0 km/h (0 Bft)
15.03.2016 13:45 0,5 C 1,8 C 82 % 1018,4 hPa 0,0 mm 0,0 km/h (0 Bft) W-NW 292 0 min -2,2 C 0,0 km/h (0 Bft)
15.03.2016 13:50 0,5 C 2,0 C 82 % 1018,2 hPa 0,0 mm 0,0 km/h (0 Bft) S 180 0 min -2,2 C 0,0 km/h (0 Bft)
15.03.2016 13:54 0,6 C 1,9 C 82 % 1018,2 hPa 0,0 mm 0,0 km/h (0 Bft) W-NW 292 0 min -2,1 C 0,0 km/h (0 Bft)
15.03.2016 13:56 0,6 C 1,9 C 82 % 1018,2 hPa 0,0 mm 0,0 km/h (0 Bft) W-NW 292 0 min -2,1 C 0,0 km/h (0 Bft)
15.03.2016 14:00 0,6 C 1,9 C 82 % 1018,2 hPa 0,0 mm 0,0 km/h (0 Bft) NW 315 0 min -2,1 C 0,0 km/h (0 Bft)
15.03.2016 14:05 0,7 C 1,9 C 82 % 1018,2 hPa 0,0 mm 0,0 km/h (0 Bft) W-NW 292 0 min -2,0 C 0,0 km/h (0 Bft)
15.03.2016 14:10 0,7 C 1,9 C 82 % 1018,0 hPa 0,0 mm 0,0 km/h (0 Bft) W-NW 292 0 min -2,0 C 0,0 km/h (0 Bft)
15.03.2016 14:15 0,6 C 1,8 C 82 % 1018,0 hPa 0,0 mm 0,0 km/h (0 Bft) NW 315 0 min -2,1 C 0,0 km/h (0 Bft)
15.03.2016 14:20 0,6 C 1,7 C 82 % 1018,0 hPa 0,0 mm 0,0 km/h (0 Bft) W-SW 247 0 min -2,1 C 0,0 km/h (0 Bft)
15.03.2016 14:25 0,6 C 1,6 C 82 % 1018,0 hPa 0,0 mm 0,0 km/h (0 Bft) NW 315 0 min -2,1 C 0,0 km/h (0 Bft)
15.03.2016 14:30 0,6 C 1,6 C 82 % 1017,9 hPa 0,0 mm 0,0 km/h (0 Bft) N-NW 337 0 min -2,1 C 0,0 km/h (0 Bft)
15.03.2016 14:35 0,6 C 1,3 C 82 % 1017,9 hPa 0,0 mm 0,0 km/h (0 Bft) N-NO 22 0 min -2,1 C 0,0 km/h (0 Bft)
15.03.2016 14:40 0,6 C 1,3 C 82 % 1017,9 hPa 0,0 mm 0,0 km/h (0 Bft) N-NO 22 0 min -2,1 C 0,0 km/h (0 Bft)
15.03.2016 14:45 0,6 C 1,3 C 83 % 1017,9 hPa 0,0 mm 0,0 km/h (0 Bft) NW 315 0 min -1,9 C 0,0 km/h (0 Bft)
15.03.2016 14:50 0,6 C 1,4 C 83 % 1017,8 hPa 0,0 mm 0,0 km/h (0 Bft) N-NW 337 0 min -1,9 C 0,0 km/h (0 Bft)
15.03.2016 14:55 0,5 C 1,2 C 83 % 1017,8 hPa 0,0 mm 0,0 km/h (0 Bft) NW 315 0 min -2,0 C 0,0 km/h (0 Bft)
15.03.2016 15:00 0,5 C 1,2 C 83 % 1017,8 hPa 0,0 mm 0,0 km/h (0 Bft) NW 315 0 min -2,0 C 0,0 km/h (0 Bft)
15.03.2016 15:05 0,6 C 1,5 C 83 % 1017,8 hPa 0,0 mm 0,0 km/h (0 Bft) N-NW 337 0 min -1,9 C 0,0 km/h (0 Bft)
15.03.2016 15:10 0,6 C 1,5 C 83 % 1017,6 hPa 0,0 mm 0,0 km/h (0 Bft) W 270 0 min -1,9 C 0,0 km/h (0 Bft)
15.03.2016 15:15 0,5 C 1,4 C 83 % 1017,6 hPa 0,0 mm 0,0 km/h (0 Bft) N-NO 22 0 min -2,0 C 0,0 km/h (0 Bft)
15.03.2016 15:20 0,5 C 1,4 C 83 % 1017,6 hPa 0,0 mm 0,0 km/h (0 Bft) W-NW 292 0 min -2,0 C 0,0 km/h (0 Bft)
15.03.2016 15:25 0,5 C 1,3 C 83 % 1017,6 hPa 0,0 mm 0,0 km/h (0 Bft) NW 315 0 min -2,0 C 0,0 km/h (0 Bft)
15.03.2016 15:30 0,5 C 1,2 C 83 % 1017,6 hPa 0,0 mm 0,0 km/h (0 Bft) NO 45 0 min -2,0 C 0,0 km/h (0 Bft)
15.03.2016 15:35 0,3 C 0,7 C 83 % 1017,6 hPa 0,0 mm 0,0 km/h (0 Bft) N-NW 337 0 min -2,2 C 0,0 km/h (0 Bft)
15.03.2016 15:40 0,2 C 0,5 C 83 % 1017,6 hPa 0,0 mm 0,0 km/h (0 Bft) N-NW 337 0 min -2,3 C 0,0 km/h (0 Bft)
15.03.2016 15:45 0,0 C 0,6 C 83 % 1017,6 hPa 0,0 mm 0,0 km/h (0 Bft) N-NW 337 0 min -2,5 C 0,0 km/h (0 Bft)
15.03.2016 15:50 0,0 C 0,5 C 83 % 1017,8 hPa 0,0 mm 0,0 km/h (0 Bft) N-NW 337 0 min -2,5 C 0,0 km/h (0 Bft)
15.03.2016 15:55 -0,1 C 0,5 C 83 % 1017,8 hPa 0,0 mm 0,0 km/h (0 Bft) N-NW 337 0 min -2,6 C 0,0 km/h (0 Bft)
15.03.2016 16:00 -0,1 C 0,5 C 83 % 1017,8 hPa 0,0 mm 0,0 km/h (0 Bft) N-NW 337 0 min -2,6 C 0,0 km/h (0 Bft)
15.03.2016 16:05 0,0 C 0,6 C 83 % 1017,8 hPa 0,0 mm 0,0 km/h (0 Bft) N-NW 337 0 min -2,5 C 0,0 km/h (0 Bft)
15.03.2016 16:10 0,0 C 0,7 C 83 % 1017,6 hPa 0,0 mm 0,0 km/h (0 Bft) N-NW 337 0 min -2,5 C 0,0 km/h (0 Bft)
15.03.2016 16:15 -0,1 C 0,7 C 83 % 1017,6 hPa 0,0 mm 0,0 km/h (0 Bft) N-NW 337 0 min -2,6 C 0,0 km/h (0 Bft)
15.03.2016 16:20 -0,1 C 0,7 C 83 % 1017,6 hPa 0,0 mm 0,0 km/h (0 Bft) N-NW 337 0 min -2,6 C 0,0 km/h (0 Bft)
15.03.2016 16:25 -0,1 C 0,9 C 83 % 1017,6 hPa 0,7 mm 0,0 km/h (0 Bft) N-NW 337 0 min -2,6 C 0,0 km/h (0 Bft)
15.03.2016 16:30 0,0 C 1,1 C 83 % 1017,7 hPa 0,0 mm 0,0 km/h (0 Bft) N-NW 337 0 min -2,5 C 0,0 km/h (0 Bft)
15.03.2016 16:35 0,0 C 1,0 C 83 % 1017,7 hPa 0,0 mm 0,0 km/h (0 Bft) N-NW 337 0 min -2,5 C 0,0 km/h (0 Bft)
15.03.2016 16:40 0,0 C 0,7 C 83 % 1017,7 hPa 0,0 mm 0,0 km/h (0 Bft) N-NW 337 0 min -2,5 C 0,0 km/h (0 Bft)
15.03.2016 16:45 -0,1 C 0,6 C 83 % 1017,7 hPa 0,0 mm 0,3 km/h (0 Bft) NW 315 0 min -2,6 C 8,3 km/h (2 Bft)
15.03.2016 16:50 -0,1 C 0,5 C 83 % 1017,8 hPa 0,0 mm 0,3 km/h (0 Bft) N 360 0 min -2,6 C 0,0 km/h (0 Bft)
15.03.2016 16:55 -0,1 C 0,5 C 83 % 1017,8 hPa 0,0 mm 0,3 km/h (0 Bft) N-NO 22 0 min -2,6 C 0,0 km/h (0 Bft)
15.03.2016 16:57 -0,1 C 0,5 C 83 % 1017,8 hPa 0,0 mm 0,3 km/h (0 Bft) N-NO 22 0 min -2,6 C 0,0 km/h (0 Bft)
15.03.2016 17:00 -0,2 C 0,5 C 83 % 1017,8 hPa 0,0 mm 0,0 km/h (0 Bft) N-NO 22 0 min -2,7 C 0,0 km/h (0 Bft)
15.03.2016 17:05 -0,2 C 0,3 C 83 % 1017,8 hPa 0,0 mm 0,0 km/h (0 Bft) N-NO 22 0 min -2,7 C 0,0 km/h (0 Bft)
15.03.2016 17:10 -0,3 C 0,2 C 83 % 1018,0 hPa 0,0 mm 0,0 km/h (0 Bft) N-NO 22 0 min -2,8 C 0,0 km/h (0 Bft)
15.03.2016 17:15 -0,5 C -0,1 C 83 % 1018,0 hPa 0,0 mm 1,5 km/h (1 Bft) N-NO 22 0 min -3,0 C 0,0 km/h (0 Bft)
15.03.2016 17:20 -0,5 C -0,1 C 83 % 1018,0 hPa 0,0 mm 1,8 km/h (1 Bft) N-NO 22 0 min -3,0 C 0,0 km/h (0 Bft)
15.03.2016 17:25 -0,6 C -0,4 C 83 % 1018,0 hPa 0,0 mm 0,9 km/h (0 Bft) N-NO 22 0 min -3,1 C 8,3 km/h (2 Bft)
15.03.2016 17:30 -0,6 C -0,6 C 83 % 1018,2 hPa 0,0 mm 2,7 km/h (1 Bft) N-NO 22 0 min -3,1 C 4,2 km/h (1 Bft)
15.03.2016 17:35 -0,9 C -0,9 C 83 % 1018,2 hPa 0,0 mm 4,8 km/h (1 Bft) N-NO 22 0 min -3,4 C 4,8 km/h (1 Bft)
15.03.2016 17:40 -1,0 C -1,1 C 83 % 1018,2 hPa 0,0 mm 4,8 km/h (1 Bft) N-NO 22 0 min -3,5 C 7,7 km/h (2 Bft)
15.03.2016 17:45 -1,0 C -1,3 C 83 % 1018,2 hPa 0,0 mm 5,7 km/h (1 Bft) N-NO 22 0 min -3,5 C 6,6 km/h (2 Bft)
15.03.2016 17:50 -1,1 C -1,4 C 83 % 1018,2 hPa 0,0 mm 6,3 km/h (2 Bft) O-NO 67 0 min -3,6 C 6,0 km/h (2 Bft)
15.03.2016 17:55 -1,1 C -1,3 C 83 % 1018,2 hPa 0,0 mm 4,8 km/h (1 Bft) NO 45 0 min -3,6 C 5,7 km/h (1 Bft)
15.03.2016 18:00 -1,1 C -1,2 C 83 % 1018,2 hPa 0,0 mm 3,9 km/h (1 Bft) NO 45 0 min -3,6 C 8,0 km/h (2 Bft)
15.03.2016 18:05 -1,2 C -1,2 C 83 % 1018,2 hPa 0,0 mm 3,9 km/h (1 Bft) O 90 0 min -3,7 C 4,8 km/h (1 Bft)
15.03.2016 18:10 -1,2 C -1,3 C 83 % 1018,3 hPa 0,0 mm 4,2 km/h (1 Bft) N-NO 22 0 min -3,7 C 5,4 km/h (1 Bft)
15.03.2016 18:15 -1,2 C -1,3 C 83 % 1018,3 hPa 0,0 mm 2,7 km/h (1 Bft) O-NO 67 0 min -3,7 C 0,0 km/h (0 Bft)
15.03.2016 18:20 -1,2 C -1,4 C 84 % 1018,3 hPa 0,0 mm 2,1 km/h (1 Bft) NO 45 0 min -3,5 C 6,9 km/h (2 Bft)
15.03.2016 18:25 -1,3 C -1,4 C 83 % 1018,3 hPa 0,0 mm 2,7 km/h (1 Bft) O-NO 67 0 min -3,8 C 7,7 km/h (2 Bft)
15.03.2016 18:30 -1,3 C -1,5 C 83 % 1018,2 hPa 0,0 mm 3,3 km/h (1 Bft) NO 45 0 min -3,8 C 0,0 km/h (0 Bft)
15.03.2016 18:35 -1,3 C -1,5 C 83 % 1018,2 hPa 0,0 mm 1,8 km/h (1 Bft) N-NW 337 0 min -3,8 C 0,0 km/h (0 Bft)
15.03.2016 18:40 -1,3 C -1,5 C 83 % 1018,2 hPa 0,0 mm 0,9 km/h (0 Bft) O-NO 67 0 min -3,8 C 4,8 km/h (1 Bft)
15.03.2016 18:45 -1,3 C -1,5 C 84 % 1018,2 hPa 0,0 mm 3,6 km/h (1 Bft) O 90 0 min -3,6 C 6,6 km/h (2 Bft)
15.03.2016 18:50 -1,3 C -1,7 C 84 % 1018,2 hPa 0,0 mm 5,7 km/h (1 Bft) O-NO 67 0 min -3,6 C 5,7 km/h (1 Bft)
15.03.2016 18:55 -1,3 C -1,7 C 84 % 1018,2 hPa 0,0 mm 5,7 km/h (1 Bft) O-NO 67 0 min -3,6 C 12,8 km/h (3 Bft)
15.03.2016 19:00 -1,3 C -1,8 C 87 % 1018,2 hPa 0,0 mm 5,7 km/h (1 Bft) NO 45 0 min -3,2 C 5,4 km/h (1 Bft)
15.03.2016 19:05 -1,3 C -1,8 C 87 % 1018,2 hPa 0,0 mm 6,3 km/h (2 Bft) NO 45 0 min -3,2 C 8,0 km/h (2 Bft)
15.03.2016 19:10 -1,3 C -1,7 C 87 % 1018,2 hPa 0,0 mm 5,1 km/h (1 Bft) SO 135 0 min -3,2 C 4,8 km/h (1 Bft)
15.03.2016 19:15 -1,3 C -1,7 C 87 % 1018,2 hPa 0,0 mm 5,4 km/h (1 Bft) O-NO 67 0 min -3,2 C 6,9 km/h (2 Bft)
15.03.2016 19:20 -1,3 C -1,7 C 87 % 1018,2 hPa 0,0 mm 5,4 km/h (1 Bft) O-NO 67 0 min -3,2 C 11,3 km/h (2 Bft)
15.03.2016 19:25 -1,3 C -1,7 C 88 % 1018,2 hPa 0,0 mm 5,1 km/h (1 Bft) O-NO 67 0 min -3,0 C 4,8 km/h (1 Bft)
15.03.2016 19:30 -1,3 C -1,6 C 88 % 1018,2 hPa 0,0 mm 4,8 km/h (1 Bft) NO 45 0 min -3,0 C 8,3 km/h (2 Bft)
15.03.2016 19:35 -1,5 C -1,7 C 84 % 1018,2 hPa 0,0 mm 5,1 km/h (1 Bft) O-NO 67 0 min -3,8 C 7,7 km/h (2 Bft)
15.03.2016 19:40 -1,5 C -1,8 C 84 % 1018,2 hPa 0,0 mm 5,4 km/h (1 Bft) NO 45 0 min -3,8 C 17,0 km/h (3 Bft)
15.03.2016 19:45 -1,5 C -1,7 C 85 % 1018,2 hPa 0,0 mm 4,5 km/h (1 Bft) NO 45 0 min -3,7 C 0,0 km/h (0 Bft)
15.03.2016 19:50 -1,5 C -1,7 C 85 % 1018,4 hPa 0,0 mm 4,5 km/h (1 Bft) NO 45 0 min -3,7 C 4,8 km/h (1 Bft)
15.03.2016 19:55 -1,5 C -1,8 C 85 % 1018,4 hPa 0,0 mm 5,4 km/h (1 Bft) O-NO 67 0 min -3,7 C 10,4 km/h (2 Bft)
15.03.2016 19:58 -1,5 C -1,8 C 85 % 1018,4 hPa 0,0 mm 5,4 km/h (1 Bft) O-NO 67 0 min -3,7 C 10,4 km/h (2 Bft)
15.03.2016 20:00 -1,5 C -1,9 C 85 % 1018,4 hPa 0,0 mm 6,0 km/h (2 Bft) N-NO 22 0 min -3,7 C 6,6 km/h (2 Bft)
15.03.2016 20:05 -1,5 C -1,7 C 85 % 1018,4 hPa 0,0 mm 4,5 km/h (1 Bft) O-NO 67 0 min -3,7 C 0,0 km/h (0 Bft)
15.03.2016 20:10 -1,5 C -1,6 C 85 % 1018,2 hPa 0,0 mm 3,6 km/h (1 Bft) O-SO 112 0 min -3,7 C 7,2 km/h (2 Bft)
15.03.2016 20:15 -1,5 C -1,7 C 89 % 1018,2 hPa 0,0 mm 4,2 km/h (1 Bft) N-NO 22 0 min -3,1 C 6,6 km/h (2 Bft)
15.03.2016 20:20 -1,5 C -1,9 C 89 % 1018,2 hPa 0,0 mm 5,4 km/h (1 Bft) O-NO 67 0 min -3,1 C 8,0 km/h (2 Bft)
15.03.2016 20:25 -1,5 C -1,7 C 89 % 1018,2 hPa 0,0 mm 3,0 km/h (1 Bft) O-NO 67 0 min -3,1 C 3,6 km/h (1 Bft)
15.03.2016 20:30 -1,6 C -1,7 C 85 % 1018,1 hPa 0,0 mm 2,1 km/h (1 Bft) NO 45 0 min -3,8 C 0,0 km/h (0 Bft)
15.03.2016 20:35 -1,6 C -1,7 C 85 % 1018,1 hPa 0,0 mm 0,9 km/h (0 Bft) SO 135 0 min -3,8 C 0,0 km/h (0 Bft)
15.03.2016 20:40 -1,6 C -1,7 C 85 % 1018,1 hPa 0,0 mm 0,6 km/h (0 Bft) N-NW 337 0 min -3,8 C 4,5 km/h (1 Bft)
15.03.2016 20:45 -1,6 C -1,7 C 85 % 1018,1 hPa 0,0 mm 1,2 km/h (1 Bft) O 90 0 min -3,8 C 0,0 km/h (0 Bft)
15.03.2016 20:50 -1,6 C -1,8 C 89 % 1018,1 hPa 0,0 mm 1,2 km/h (1 Bft) NO 45 0 min -3,2 C 0,0 km/h (0 Bft)
15.03.2016 20:55 -1,6 C -1,8 C 89 % 1018,1 hPa 0,0 mm 1,5 km/h (1 Bft) NW 315 0 min -3,2 C 0,0 km/h (0 Bft)
15.03.2016 21:00 -1,6 C -1,8 C 89 % 1018,1 hPa 0,0 mm 1,5 km/h (1 Bft) NO 45 0 min -3,2 C 0,0 km/h (0 Bft)
15.03.2016 21:05 -1,6 C -1,8 C 89 % 1018,1 hPa 0,0 mm 0,0 km/h (0 Bft) N-NO 22 0 min -3,2 C 0,0 km/h (0 Bft)
15.03.2016 21:10 -1,7 C -1,9 C 89 % 1018,0 hPa 0,0 mm 0,6 km/h (0 Bft) O-SO 112 0 min -3,3 C 4,8 km/h (1 Bft)
15.03.2016 21:15 -1,7 C -1,9 C 89 % 1018,0 hPa 0,0 mm 1,2 km/h (1 Bft) O 90 0 min -3,3 C 4,2 km/h (1 Bft)
15.03.2016 21:20 -1,7 C -1,9 C 89 % 1018,0 hPa 0,0 mm 2,1 km/h (1 Bft) O-NO 67 0 min -3,3 C 3,3 km/h (1 Bft)
15.03.2016 21:25 -1,7 C -1,9 C 89 % 1018,0 hPa 0,0 mm 3,0 km/h (1 Bft) N-NO 22 0 min -3,3 C 0,0 km/h (0 Bft)
15.03.2016 21:30 -1,7 C -1,9 C 89 % 1017,9 hPa 0,0 mm 2,4 km/h (1 Bft) NO 45 0 min -3,3 C 5,7 km/h (1 Bft)
15.03.2016 21:35 -1,7 C -1,9 C 89 % 1017,9 hPa 0,0 mm 2,1 km/h (1 Bft) NO 45 0 min -3,3 C 0,0 km/h (0 Bft)
15.03.2016 21:40 -1,8 C -2,0 C 89 % 1017,9 hPa 0,0 mm 3,0 km/h (1 Bft) O-SO 112 0 min -3,4 C 7,2 km/h (2 Bft)
15.03.2016 21:45 -1,8 C -2,1 C 89 % 1017,9 hPa 0,0 mm 4,5 km/h (1 Bft) O-NO 67 0 min -3,4 C 7,5 km/h (2 Bft)
15.03.2016 21:50 -1,8 C -2,2 C 89 % 1017,9 hPa 0,0 mm 5,1 km/h (1 Bft) NO 45 0 min -3,4 C 0,0 km/h (0 Bft)
15.03.2016 21:55 -1,8 C -2,0 C 89 % 1017,9 hPa 0,0 mm 2,7 km/h (1 Bft) N-NO 22 0 min -3,4 C 7,7 km/h (2 Bft)
15.03.2016 22:00 -1,9 C -2,1 C 89 % 1017,9 hPa 0,0 mm 3,0 km/h (1 Bft) NO 45 0 min -3,5 C 8,0 km/h (2 Bft)
15.03.2016 22:05 -2,0 C -2,3 C 85 % 1017,9 hPa 0,0 mm 5,1 km/h (1 Bft) O-SO 112 0 min -4,2 C 6,0 km/h (2 Bft)
15.03.2016 22:10 -2,0 C -2,2 C 85 % 1017,9 hPa 0,0 mm 4,2 km/h (1 Bft) N-NO 22 0 min -4,2 C 0,0 km/h (0 Bft)
15.03.2016 22:15 -2,0 C -2,2 C 89 % 1017,9 hPa 0,0 mm 2,4 km/h (1 Bft) O-NO 67 0 min -3,6 C 8,0 km/h (2 Bft)
15.03.2016 22:20 -2,0 C -2,2 C 89 % 1017,9 hPa 0,0 mm 1,5 km/h (1 Bft) N 360 0 min -3,6 C 0,0 km/h (0 Bft)
15.03.2016 22:25 -2,0 C -2,2 C 89 % 1017,9 hPa 0,0 mm 2,4 km/h (1 Bft) NO 45 0 min -3,6 C 8,3 km/h (2 Bft)
15.03.2016 22:30 -2,0 C -2,2 C 89 % 1017,9 hPa 0,0 mm 4,2 km/h (1 Bft) O-NO 67 0 min -3,6 C 9,5 km/h (2 Bft)
15.03.2016 22:35 -2,0 C -2,5 C 89 % 1017,9 hPa 0,0 mm 5,7 km/h (1 Bft) O-NO 67 0 min -3,6 C 4,5 km/h (1 Bft)
15.03.2016 22:40 -2,1 C -2,2 C 85 % 1017,9 hPa 0,0 mm 4,2 km/h (1 Bft) O-NO 67 0 min -4,3 C 4,2 km/h (1 Bft)
15.03.2016 22:45 -2,1 C -2,2 C 85 % 1017,9 hPa 0,0 mm 3,0 km/h (1 Bft) O-SO 112 0 min -4,3 C 0,0 km/h (0 Bft)
15.03.2016 22:50 -2,1 C -2,2 C 85 % 1017,9 hPa 0,0 mm 3,3 km/h (1 Bft) NO 45 0 min -4,3 C 7,7 km/h (2 Bft)
15.03.2016 22:55 -2,1 C -2,2 C 85 % 1017,9 hPa 0,0 mm 1,8 km/h (1 Bft) O-NO 67 0 min -4,3 C 5,1 km/h (1 Bft)
15.03.2016 22:59 -2,0 C -2,2 C 90 % 1017,9 hPa 0,0 mm 2,1 km/h (1 Bft) NO 45 0 min -3,4 C 8,0 km/h (2 Bft)
15.03.2016 23:00 -2,0 C -2,2 C 90 % 1017,9 hPa 0,0 mm 2,1 km/h (1 Bft) NO 45 0 min -3,4 C 8,0 km/h (2 Bft)
15.03.2016 23:05 -2,1 C -2,3 C 85 % 1017,9 hPa 0,0 mm 4,5 km/h (1 Bft) O-SO 112 0 min -4,3 C 6,6 km/h (2 Bft)
15.03.2016 23:10 -2,1 C -2,4 C 85 % 1017,8 hPa 0,0 mm 5,4 km/h (1 Bft) S 180 0 min -4,3 C 7,2 km/h (2 Bft)
15.03.2016 23:15 -2,1 C -2,3 C 85 % 1017,8 hPa 0,0 mm 4,5 km/h (1 Bft) NO 45 0 min -4,3 C 4,8 km/h (1 Bft)
15.03.2016 23:20 -2,1 C -2,2 C 85 % 1017,8 hPa 0,0 mm 3,0 km/h (1 Bft) O-NO 67 0 min -4,3 C 6,6 km/h (2 Bft)
15.03.2016 23:25 -2,1 C -2,3 C 85 % 1017,8 hPa 0,0 mm 4,5 km/h (1 Bft) O-NO 67 0 min -4,3 C 14,6 km/h (3 Bft)
15.03.2016 23:30 -2,1 C -2,6 C 90 % 1017,7 hPa 0,0 mm 6,3 km/h (2 Bft) NO 45 0 min -3,5 C 5,4 km/h (1 Bft)
15.03.2016 23:35 -2,1 C -2,6 C 90 % 1017,7 hPa 0,0 mm 6,3 km/h (2 Bft) O 90 0 min -3,5 C 8,0 km/h (2 Bft)
15.03.2016 23:40 -2,1 C -2,6 C 90 % 1017,7 hPa 0,0 mm 5,7 km/h (1 Bft) O-NO 67 0 min -3,5 C 5,1 km/h (1 Bft)
15.03.2016 23:45 -2,2 C -2,3 C 86 % 1017,7 hPa 0,0 mm 4,2 km/h (1 Bft) SO 135 0 min -4,2 C 19,7 km/h (3 Bft)
15.03.2016 23:50 -2,2 C -2,3 C 86 % 1017,7 hPa 0,0 mm 2,4 km/h (1 Bft) NO 45 0 min -4,2 C 0,0 km/h (0 Bft)
15.03.2016 23:55 -2,2 C -2,4 C 90 % 1017,7 hPa 0,0 mm 3,3 km/h (1 Bft) O-NO 67 0 min -3,6 C 9,8 km/h (2 Bft)
_ Min-Zeit 03:10 03:10 11:10 16:25 - 21:05 - - - 03:10 23:50
Minimum _ -4,9 C -5,4 C 77 % 1017,6 hPa - 0,0 km/h (0 Bft) - - - -6,9 C 0,0 km/h (0 Bft)
_ Max-Zeit 10:49 09:30 23:55 00:45 16:25 11:00 - - 23:55 10:39 23:45
Maximum _ 1,8 C 2,9 C 90 % 1021,2 hPa 0,7 mm 8,6 km/h
NW (2 Bft)
- - 0 min -1,7 C 19,7 km/h
SO (3 Bft)
Durchschnitt _ -1,5 C -1,3 C 84 % 1019,1 hPa #0,7 mm 2,0 km/h (1 Bft) O-NO - #0 min. -3,8 C 3,0 km/h (1 Bft)